#timestamp,LO_Frequency,Hit,StdDev 
1513728015.3,286046997.7,N
1513728035.1,286046995.1,N
1513728055.9,286046999.1,N
1513728075.7,286047000.2,N
1513728095.5,286046998.2,N
1513728115.3,286046999.6,N
1513728135.2,286046995.7,N
1513728155.0,286046997.9,N
1513728155.9,286046997.9,N
1513728175.8,286046992.0,Y
1513728195.6,286046994.1,P
1513728215.4,286046992.9,P
1513728235.2,286046988.9,P
1513728255.1,286046987.2,Y
1513728256.0,286046987.2,P
1513728275.8,286046990.3,P
1513728295.6,286046992.4,N
1513728315.5,286046991.0,Y
1513728335.3,286047002.8,P
1513728355.2,286047000.8,N
1513728375.9,286046998.6,N
1513728395.7,286046998.6,N
1513728415.5,286047000.9,N
1513728435.4,286046997.1,N
1513728455.2,286046996.4,N
1513728475.0,286046996.4,N
1513728475.9,286046996.4,N
1513728495.8,286046993.7,N
1513728515.6,286046991.9,N
1513728535.4,286046994.5,N
1513728555.3,286046994.4,N
1513728575.1,286046997.8,N
1513728576.0,286046997.8,N
1513728595.8,286047002.7,N
1513728615.7,286047004.6,N
1513728635.5,286047005.4,N
1513728655.3,286047005.5,N
1513728675.2,286047007.8,N
1513728695.9,286047011.3,N
1513728715.7,286047015.3,N
1513728735.5,286047014.6,N
1513728755.4,286047016.7,N
1513728775.2,286047019.0,N
1513728795.0,286047020.5,N
1513728795.9,286047020.5,N
1513728815.8,286047021.4,N
1513728835.6,286047023.2,N
1513728855.4,286047022.7,N
1513728875.3,286047020.5,N
1513728895.1,286047022.3,N
1513728896.0,286047022.3,N
1513728915.8,286047023.1,N
1513728935.7,286047023.3,N
1513728955.5,286047020.7,N
1513728975.3,286047017.9,N
1513728995.2,286047018.3,N
1513729015.9,286047018.3,N
1513729035.7,286047019.2,N
1513729055.5,286047019.5,N
1513729075.4,286047021.6,N
1513729095.2,286047017.4,N
1513729115.0,286047022.2,N
1513729116.0,286047022.2,Y
1513729135.8,286047007.3,P
1513729155.6,286047000.2,N
1513729175.4,286046996.5,N
1513729195.3,286046999.2,N
1513729215.1,286046998.0,N
1513729235.8,286046999.4,N
1513729255.7,286046999.4,N
1513729275.5,286046998.2,N
1513729295.3,286047000.4,N
1513729315.2,286046996.6,N
1513729335.9,286046996.0,N
1513729355.7,286046991.0,N
1513729375.6,286046988.8,N
1513729395.4,286046991.6,N
1513729415.2,286046988.8,N
1513729435.0,286046988.0,N
1513729436.0,286046988.0,N
1513729455.8,286046986.3,N
1513729475.6,286046988.6,N
1513729495.4,286046989.8,N
1513729515.3,286046989.1,N
1513729535.1,286046991.6,N
1513729555.8,286046990.9,N
1513729575.7,286046994.5,N
1513729595.5,286046992.3,N
1513729615.3,286046991.2,N
1513729635.2,286046991.6,N
1513729655.9,286046991.3,N
1513729675.7,286046991.3,N
1513729695.5,286046986.9,N
1513729715.4,286046990.0,N
1513729735.2,286046991.5,N
1513729755.0,286046990.9,N
1513729755.9,286046990.9,N
1513729775.8,286046988.9,N
1513729795.6,286046986.1,Y
1513729815.4,286046991.8,P
1513729835.3,286046987.6,P
1513729855.1,286046983.8,P
1513729875.9,286046983.9,Y
1513729895.7,286046997.3,P
1513729915.5,286046995.0,N
1513729935.3,286046998.7,N
1513729955.2,286046999.5,N
1513729975.0,286046997.9,N
1513729975.9,286046997.9,N
1513729995.7,286046997.6,N
1513730015.6,286046995.8,N
1513730035.4,286046997.8,N
1513730055.2,286046996.5,N
1513730075.1,286046998.4,N
1513730076.0,286046998.4,N
1513730095.8,286046998.4,N
1513730115.6,286047002.8,N
1513730135.5,286047002.7,N
1513730155.3,286046999.7,N
1513730175.1,286047004.2,N
1513730195.9,286047002.6,N
1513730215.7,286046999.8,N
1513730235.5,286046998.1,N
1513730255.3,286047001.0,N
1513730275.2,286046998.5,N
1513730295.0,286047002.3,N
1513730295.9,286047002.3,N
1513730315.7,286047000.3,N
1513730335.6,286047000.1,N
1513730355.4,286047004.4,N
1513730375.2,286047001.0,N
1513730395.1,286047001.7,N
1513730396.0,286047001.7,N
1513730415.8,286047002.7,N
1513730435.6,286046995.3,N
1513730455.5,286046999.2,N
1513730475.3,286046996.9,N
1513730495.1,286046997.6,N
1513730515.8,286046997.7,N
1513730535.7,286046999.2,N
1513730555.5,286047000.3,N
1513730575.3,286047001.0,N
1513730595.2,286046996.8,N
1513730615.0,286046999.0,N
1513730615.9,286046999.0,N
1513730635.7,286046997.4,N
1513730655.6,286046996.3,N
1513730675.4,286046994.9,N
1513730695.2,286046999.1,N
1513730715.1,286046998.7,N
1513730716.0,286046998.7,N
1513730735.8,286046996.5,N
1513730755.6,286046993.7,N
1513730775.5,286046992.6,Y
1513730795.3,286046990.9,P
1513730815.1,286046992.3,N
1513730835.9,286046992.1,N
1513730855.7,286046993.5,N
1513730875.5,286046995.3,N
1513730895.4,286046996.4,N
1513730915.2,286046997.4,N
1513730935.0,286046996.8,N
1513730935.9,286046996.8,N
1513730955.8,286046996.2,N
1513730975.6,286046992.1,Y
1513730995.4,286046995.3,P
1513731015.3,286047001.0,P
1513731035.1,286047000.2,N
1513731036.0,286047000.2,N
1513731055.8,286046997.0,N
1513731075.7,286046997.0,N
1513731095.5,286046998.8,N
1513731115.3,286046992.1,Y
1513731135.2,286046992.4,P
1513731155.9,286046996.2,N
1513731175.7,286046993.7,N
1513731195.5,286046994.5,N
1513731215.4,286046992.3,Y
1513731235.2,286046996.7,P
1513731255.0,286047002.3,N
1513731256.0,286047002.3,N
1513731275.8,286046999.4,N
1513731295.6,286047001.2,N
1513731315.4,286046999.8,N
1513731335.3,286046998.5,N
1513731355.1,286047002.4,N
1513731375.8,286047002.6,N
1513731395.7,286047000.5,N
1513731415.5,286047002.2,N
1513731435.3,286047005.6,N
1513731455.2,286047000.6,N
1513731475.9,286047002.6,N
1513731495.7,286047002.3,N
1513731515.6,286047003.3,N
1513731535.4,286047004.4,N
1513731555.2,286047001.4,N
1513731575.0,286047003.1,N
1513731575.9,286047003.1,N
1513731595.8,286047003.9,N
